Flag for Switzerland Weather past 2 weeks in Locarno, Ticino, Switzerland

Now
55 °F

Cool.


Feels Like: 55 °F
Forecast: 40 / 42 °F
Wind: 2 mph from West

Location: Locarno-Monti

Current Time: Apr 26, 2015 at 3:55:51 PM

Latest Report: Apr 26, 2015 at 3:00 PM


Visibility: N/A

Pressure: 29.93 "Hg

Humidity: 91%

Dew point: 52 °F

Location of LocarnoLocation

Historic Weather in Locarno — Graph

°F

Locarno temperature yesterday

Maximum temperature yesterday: 63 °F (at 12:00 AM)
Minimum temperature yesterday: 51 °F (at 9:00 PM)
Average temperature yesterday: 55 °F

Past Weeks' High & Low Weather Summary

 TemperatureHumidityPressure
High78 °F (Apr 22, 5:00 PM)100% (Apr 26, 2:00 AM)30.42 "Hg (Apr 26, 2:00 AM)
Low45 °F (Apr 20, 7:00 AM)11% (Apr 14, 7:00 PM)29.82 "Hg (Apr 18, 4:00 PM)
Average61 °F49%30.11 "Hg
* Reported Apr 11 2:00 PM — Apr 26 2:00 PM, Locarno, Weather by CustomWeather, © 2015

Note: Actual official high and low records may vary slightly from our data, if they occured in-between our weather recording intervals... More about our weather records

Advertising

Locarno weather history for previous 24 hours

 ConditionsComfort  
Time TempWeatherWind HumidityBarometerVisibility
2:00 PM
Sun, Apr 26
54 °FLight rain. Low clouds.1 mph94%29.94 "Hg4 mi
1:00 PM53 °FCool.1 mph94%29.96 "HgN/A
12:00 PM54 °FCool.1 mph92%29.96 "HgN/A
11:00 AM53 °FFog.1 mph97%29.96 "Hg2 mi
10:00 AM53 °FCool.1 mph96%29.96 "HgN/A
9:00 AM53 °FCool.2 mph96%29.97 "HgN/A
8:00 AM52 °FFog.1 mph97%29.97 "Hg3 mi
7:00 AM51 °FCool.No wind99%29.97 "HgN/A
6:00 AM51 °FCool.1 mph98%29.97 "HgN/A
5:00 AM51 °FCool.No wind96%29.98 "HgN/A
4:00 AM51 °FCool.1 mph98%30.00 "HgN/A
3:00 AM51 °FCool.1 mph99%30.01 "HgN/A
2:00 AM51 °FCool.2 mph100%30.03 "HgN/A
1:00 AM51 °FCool.1 mph99%30.03 "HgN/A
12:00 AM51 °FCool.1 mph99%30.04 "HgN/A
10:00 PM
Sat, Apr 25
52 °FCool.1 mph97%30.05 "HgN/A
9:00 PM51 °FCool.1 mph99%30.05 "HgN/A
8:00 PM52 °FLow clouds.2 mph98%30.03 "Hg4 mi
7:00 PM52 °FCool.1 mph97%30.04 "HgN/A
6:00 PM52 °FCool.1 mph98%30.05 "HgN/A
5:00 PM52 °FLight rain. Low clouds.1 mph97%30.05 "Hg2 mi
4:00 PM53 °FCool.1 mph94%30.05 "HgN/A
3:00 PM52 °FCool.1 mph90%30.07 "HgN/A
Weather by CustomWeather, © 2015

See weather overviewHow to use our weather pages